TimePST,TemperatureF,Dew PointF,Humidity,Sea Level PressureIn,VisibilityMPH,Wind Direction,Wind SpeedMPH,Gust SpeedMPH,PrecipitationIn,Events,Conditions,WindDirDegrees,DateUTC
12:51 AM,57.0,5.0,12,30.26,10.0,North,11.5,-,N/A,,Clear,360,2013-02-28 08:51:00
2:51 AM,55.9,5.0,13,30.24,10.0,North,11.5,-,N/A,,Clear,350,2013-02-28 10:51:00
3:51 AM,57.0,3.0,11,30.24,10.0,North,12.7,-,N/A,,Clear,360,2013-02-28 11:51:00
4:51 AM,57.0,1.9,11,30.25,10.0,North,12.7,20.7,N/A,,Clear,350,2013-02-28 12:51:00
6:51 AM,51.1,10.9,20,30.29,10.0,Calm,Calm,-,N/A,,Clear,0,2013-02-28 14:51:00
7:51 AM,59.0,6.1,12,30.29,10.0,Variable,3.5,-,N/A,,Clear,0,2013-02-28 15:51:00
8:51 AM,64.0,9.0,12,30.30,10.0,North,9.2,-,N/A,,Clear,360,2013-02-28 16:51:00
9:51 AM,68.0,10.0,11,30.30,10.0,North,13.8,-,N/A,,Clear,360,2013-02-28 17:51:00
10:51 AM,71.1,7.0,8,30.29,10.0,North,10.4,21.9,N/A,,Clear,350,2013-02-28 18:51:00
11:51 AM,73.0,9.0,8,30.27,10.0,Variable,6.9,-,N/A,,Clear,0,2013-02-28 19:51:00
12:51 PM,73.9,10.0,9,30.25,10.0,Calm,Calm,-,N/A,,Clear,0,2013-02-28 20:51:00
1:51 PM,75.9,10.9,8,30.23,10.0,Variable,4.6,-,N/A,,Clear,0,2013-02-28 21:51:00
2:51 PM,75.9,12.9,9,30.22,10.0,Variable,6.9,20.7,N/A,,Clear,0,2013-02-28 22:51:00
3:51 PM,75.0,12.9,9,30.22,10.0,SE,8.1,-,N/A,,Clear,130,2013-02-28 23:51:00
4:51 PM,73.9,10.0,9,30.22,10.0,South,4.6,-,N/A,,Clear,180,2013-03-01 00:51:00
5:51 PM,68.0,17.1,14,30.25,10.0,Calm,Calm,-,N/A,,Clear,0,2013-03-01 01:51:00
6:51 PM,64.0,19.0,18,30.27,10.0,South,3.5,-,N/A,,Clear,180,2013-03-01 02:51:00
7:51 PM,66.0,10.9,12,30.27,10.0,Calm,Calm,-,N/A,,Clear,0,2013-03-01 03:51:00
8:51 PM,61.0,16.0,17,30.29,10.0,Calm,Calm,-,N/A,,Clear,0,2013-03-01 04:51:00
9:51 PM,60.1,12.0,15,30.30,10.0,North,10.4,-,N/A,,Clear,360,2013-03-01 05:51:00
10:51 PM,62.1,18.0,18,30.29,10.0,North,12.7,-,N/A,,Clear,360,2013-03-01 06:51:00
11:51 PM,62.1,14.0,15,30.29,10.0,North,12.7,-,N/A,,Clear,360,2013-03-01 07:51:00